K4CRS-13 Weather Reports


time (UTC)temp
C
wind
direction
speed
KPH
gust
KPH
rain 1hr
cm
rain 24hr
cm
rain mn
cm
humidity
%
barometer
mb
20260510193009 26 216 1.6 1.6 0.00 0.03 0.03 60 1051.5
20260510192504 26 179 1.6 1.6 0.00 0.03 0.03 64 1051.6
20260510192000 27 199 1.6 3.2 0.00 0.03 0.03 62 1051.6
20260510191456 27 186 1.6 1.6 0.00 0.03 0.03 63 1051.5
20260510190954 27 192 1.6 4.8 0.00 0.03 0.03 63 1051.7
20260510190451 27 189 1.6 3.2 0.00 0.03 0.03 64 1051.6
20260510185948 27 209 3.2 3.2 0.00 0.03 0.03 64 1051.7
20260510185445 26 182 1.6 3.2 0.00 0.03 0.03 66 1051.8
20260510184942 25 170 0.0 1.6 0.00 0.03 0.03 67 1051.9
20260510184439 25 181 1.6 3.2 0.00 0.03 0.03 72 1051.8
20260510183938 25 129 0.0 0.0 0.00 0.03 0.03 71 1051.7
20260510183435 25 209 1.6 1.6 0.00 0.03 0.03 70 1052.0
20260510182929 25 197 0.0 1.6 0.00 0.03 0.03 72 1052.1
20260510182426 24 89 3.2 9.7 0.00 0.03 0.03 70 1052.1
20260510181922 25 165 1.6 3.2 0.00 0.03 0.03 75 1052.0
20260510181420 25 168 1.6 3.2 0.00 0.03 0.03 72 1052.1
20260510180916 25 163 0.0 4.8 0.00 0.03 0.03 72 1052.1
20260510180413 25 188 3.2 3.2 0.00 0.03 0.03 70 1052.3
20260510175910 25 173 3.2 3.2 0.00 0.03 0.03 72 1052.4
20260510175406 25 179 3.2 3.2 0.00 0.03 0.03 72 1052.4
20260510174902 25 213 1.6 3.2 0.00 0.03 0.03 73 1052.5
20260510174400 25 177 1.6 3.2 0.00 0.03 0.03 74 1052.3
20260510173856 25 204 3.2 3.2 0.00 0.03 0.03 71 1052.4
20260510173352 25 181 3.2 4.8 0.00 0.03 0.03 70 1052.8
20260510172848 25 187 4.8 4.8 0.00 0.03 0.03 68 1052.5
20260510172344 26 178 1.6 3.2 0.00 0.03 0.03 69 1052.6
20260510171841 26 185 0.0 0.0 0.00 0.03 0.03 71 1052.6
20260510171338 26 153 1.6 3.2 0.00 0.03 0.03 70 1052.6
20260510170835 26 173 0.0 4.8 0.00 0.03 0.03 69 1052.9
20260510170331 25 174 1.6 4.8 0.00 0.03 0.03 68 1052.6
20260510165826 25 175 3.2 4.8 0.00 0.03 0.03 70 1052.8
20260510165324 25 178 1.6 1.6 0.00 0.03 0.03 69 1052.5
20260510164821 25 179 1.6 4.8 0.00 0.03 0.03 75 1052.8
20260510164318 24 166 1.6 3.2 0.00 0.03 0.03 76 1052.8
20260510163818 24 175 3.2 3.2 0.00 0.03 0.03 76 1052.9
20260510163314 25 166 3.2 3.2 0.00 0.03 0.03 73 1052.8
20260510162813 25 190 1.6 3.2 0.00 0.03 0.03 75 1053.0
20260510162311 25 221 3.2 3.2 0.00 0.03 0.03 75 1052.5
20260510161807 25 215 3.2 4.8 0.00 0.03 0.03 77 1052.8
20260510161303 25 147 1.6 8.0 0.00 0.03 0.03 75 1052.6
20260510160800 25 193 1.6 3.2 0.00 0.03 0.03 74 1052.6
20260510160256 25 172 1.6 1.6 0.00 0.03 0.03 76 1052.8
20260510155751 25 178 1.6 3.2 0.00 0.03 0.03 75 1052.6
20260510155248 25 134 0.0 1.6 0.00 0.03 0.03 78 1052.5
20260510154743 25 180 1.6 3.2 0.00 0.03 0.03 77 1052.6
20260510154239 25 169 1.6 3.2 0.00 0.03 0.03 79 1052.5
20260510153734 24 160 1.6 1.6 0.00 0.03 0.03 81 1052.8
20260510153230 25 139 3.2 3.2 0.00 0.03 0.03 80 1052.5
20260510152727 24 162 0.0 1.6 0.00 0.03 0.03 86 1052.6
20260510152223 23 128 0.0 1.6 0.00 0.03 0.03 90 1052.5
20260510151720 22 168 0.0 1.6 0.00 0.03 0.03 95 1052.5
20260510151219 21 165 0.0 1.6 0.00 0.03 0.03 97 1052.5
20260510150714 21 183 1.6 3.2 0.00 0.03 0.03 98 1052.6
20260510150209 21 202 1.6 1.6 0.00 0.03 0.03 98 1052.4
20260510145706 21 183 1.6 3.2 0.00 0.03 0.03 99 1052.2
20260510145202 21 166 0.0 1.6 0.00 0.03 0.03 99 1052.5
20260510144659 20 185 0.0 3.2 0.00 0.03 0.03 99 1052.4
20260510144155 20 178 0.0 0.0 0.00 0.03 0.03 99 1052.3
20260510143651 20 189 0.0 0.0 0.00 0.03 0.03 99 1052.6
20260510143148 20 167 0.0 1.6 0.00 0.03 0.03 99 1052.3
20260510142644 20 179 0.0 1.6 0.00 0.03 0.03 99 1052.6
20260510142140 20 173 0.0 1.6 0.00 0.03 0.03 99 1052.3
20260510141637 20 192 1.6 1.6 0.00 0.03 0.03 99 1052.2
20260510141136 20 134 0.0 0.0 0.00 0.03 0.03 99 1052.3
20260510140632 18 170 0.0 0.0 0.00 0.03 0.03 99 1052.4
20260510140131 19 192 0.0 0.0 0.00 0.03 0.03 99 1052.5
20260510135627 18 167 1.6 1.6 0.00 0.03 0.03 99 1052.4
20260510135123 19 215 1.6 3.2 0.00 0.03 0.03 99 1052.3
20260510134620 19 171 0.0 0.0 0.00 0.03 0.03 99 1052.2
20260510134117 18 172 0.0 0.0 0.00 0.03 0.03 99 1052.4
20260510133614 18 171 0.0 0.0 0.00 0.03 0.03 99 1052.4
20260510133109 18 179 0.0 0.0 0.00 0.03 0.03 99 1052.4
20260510132606 18 176 0.0 0.0 0.00 0.03 0.03 99 1052.5
20260510132103 18 175 0.0 0.0 0.00 0.03 0.03 99 1052.4
20260510131600 17 172 1.6 1.6 0.00 0.03 0.03 99 1052.3
20260510131057 17 178 1.6 1.6 0.00 0.03 0.03 99 1052.3
20260510130554 17 177 1.6 1.6 0.00 0.03 0.03 99 1052.3
20260510130051 17 173 0.0 1.6 0.00 0.03 0.03 99 1052.4
20260510125548 17 171 0.0 0.0 0.00 0.03 0.03 99 1051.9
20260510125044 16 166 0.0 0.0 0.00 0.03 0.03 99 1052.1
20260510124541 16 163 0.0 0.0 0.00 0.03 0.03 99 1052.0
20260510124038 16 143 0.0 0.0 0.00 0.03 0.03 99 1052.1
20260510123533 16 149 0.0 0.0 0.00 0.03 0.03 99 1052.0
20260510123029 16 171 0.0 0.0 0.00 0.03 0.03 99 1052.1
20260510122525 16 155 0.0 0.0 0.00 0.03 0.03 99 1051.7
20260510122021 16 157 0.0 0.0 0.00 0.03 0.03 99 1051.7
20260510121519 16 158 0.0 0.0 0.00 0.03 0.03 99 1051.6
20260510121016 16 136 1.6 1.6 0.00 0.03 0.03 99 1051.6
20260510120513 15 153 0.0 1.6 0.00 0.03 0.03 99 1051.4
20260510120009 15 137 0.0 1.6 0.00 0.03 0.03 99 1051.5
20260510115506 15 133 1.6 1.6 0.00 0.03 0.03 99 1051.4
20260510115002 15 154 0.0 1.6 0.00 0.03 0.03 99 1051.1
20260510114459 16 143 0.0 0.0 0.00 0.03 0.03 99 1051.3
20260510113954 15 165 0.0 0.0 0.00 0.03 0.03 99 1051.4
20260510113449 15 163 0.0 0.0 0.00 0.03 0.03 99 1051.1
20260510112948 15 165 0.0 0.0 0.00 0.03 0.03 99 1051.2
20260510112445 15 163 0.0 0.0 0.00 0.03 0.03 99 1051.0
20260510111941 15 177 0.0 0.0 0.00 0.03 0.03 99 1051.0
20260510111437 15 166 0.0 0.0 0.00 0.03 0.03 99 1050.8
20260510110933 15 176 0.0 0.0 0.00 0.03 0.03 99 1050.8
20260510110429 16 172 0.0 0.0 0.00 0.03 0.03 99 1050.6
20260510105925 16 169 0.0 0.0 0.00 0.03 0.03 99 1050.3
20260510105420 16 169 0.0 0.0 0.00 0.03 0.03 99 1050.5
20260510104916 16 169 0.0 0.0 0.00 0.03 0.03 99 1050.4
20260510104413 16 171 0.0 0.0 0.00 0.03 0.03 99 1050.0
20260510103910 16 171 0.0 0.0 0.00 0.03 0.03 99 1050.3
20260510103407 16 171 0.0 0.0 0.00 0.03 0.03 99 1049.9
20260510102902 16 171 0.0 0.0 0.00 0.03 0.03 99 1050.0
20260510102358 16 172 0.0 0.0 0.00 0.03 0.03 99 1049.8
20260510101856 16 165 0.0 0.0 0.00 0.03 0.03 99 1050.0
20260510101354 16 171 0.0 0.0 0.00 0.03 0.03 99 1049.9
20260510100850 16 170 0.0 0.0 0.00 0.03 0.03 99 1050.1
20260510100348 16 170 0.0 0.0 0.00 0.03 0.03 99 1049.6
20260510095844 16 172 0.0 0.0 0.00 0.03 0.03 99 1049.7
20260510095338 16 169 0.0 0.0 0.00 0.03 0.03 99 1049.8
20260510094833 16 167 0.0 0.0 0.00 0.03 0.03 99 1049.8
20260510094328 16 159 0.0 0.0 0.00 0.03 0.03 99 1049.7
20260510093825 16 166 0.0 0.0 0.00 0.03 0.03 99 1049.7
20260510093321 16 167 0.0 0.0 0.00 0.03 0.03 99 1049.5
20260510092817 16 161 0.0 0.0 0.00 0.03 0.03 99 1049.5
20260510092313 16 174 0.0 0.0 0.00 0.03 0.03 99 1049.3
20260510091809 16 169 0.0 0.0 0.00 0.03 0.03 99 1049.4
20260510091306 16 164 0.0 0.0 0.00 0.03 0.03 99 1049.4
20260510090803 16 169 0.0 0.0 0.00 0.03 0.03 99 1049.5
20260510090300 16 165 0.0 0.0 0.00 0.03 0.03 99 1049.4
20260510085756 16 171 0.0 0.0 0.00 0.03 0.03 99 1049.2
20260510085254 16 168 0.0 0.0 0.00 0.03 0.03 99 1049.4
20260510084751 16 169 0.0 0.0 0.00 0.03 0.03 99 1049.5
20260510084248 16 169 0.0 0.0 0.00 0.03 0.03 99 1049.3
20260510083744 16 169 0.0 0.0 0.13 0.03 0.03 99 1049.3
20260510083242 16 167 0.0 0.0 0.13 0.03 0.03 99 1049.1
20260510082737 16 161 0.0 0.0 0.00 0.00 0.00 99 1049.2
20260510082234 16 169 0.0 0.0 0.00 0.00 0.00 99 1049.2
20260510081733 16 171 0.0 0.0 0.00 0.00 0.00 99 1049.3
20260510081229 16 171 0.0 0.0 0.00 0.00 0.00 99 1049.3
20260510080724 16 167 0.0 0.0 0.00 0.00 0.00 99 1049.1
20260510080220 16 163 0.0 0.0 0.00 0.00 0.00 99 1049.3
20260510075717 16 162 0.0 0.0 0.00 0.00 0.00 99 1049.1
20260510075215 16 166 0.0 0.0 0.00 0.00 0.00 99 1048.8
20260510074712 16 171 0.0 0.0 0.00 0.00 0.00 99 1048.6
20260510074208 16 171 0.0 0.0 0.00 0.00 0.00 99 1048.9
20260510073705 16 179 0.0 0.0 0.00 0.00 0.00 99 1048.7
20260510073200 15 172 0.0 0.0 0.00 0.00 0.00 99 1048.7
20260510072657 15 161 0.0 0.0 0.00 0.00 0.00 99 1048.6
20260510072153 15 155 0.0 0.0 0.00 0.00 0.00 99 1048.9
20260510071649 15 165 0.0 0.0 0.00 0.00 0.00 99 1048.7
20260510071147 15 161 0.0 0.0 0.00 0.00 0.00 99 1048.9
20260510070644 15 167 0.0 0.0 0.00 0.00 0.00 99 1049.0
20260510070142 15 167 0.0 0.0 0.00 0.00 0.00 99 1048.9
20260510065637 15 167 0.0 0.0 0.00 0.00 0.00 99 1048.8
20260510065133 15 167 0.0 0.0 0.00 0.00 0.00 99 1049.0
20260510064630 15 168 0.0 0.0 0.00 0.00 0.00 99 1048.8
20260510064127 15 168 0.0 0.0 0.00 0.00 0.00 99 1049.0
20260510063623 15 163 0.0 0.0 0.00 0.00 0.00 99 1048.7
20260510063121 15 160 0.0 0.0 0.00 0.00 0.00 99 1048.8
20260510062616 15 168 0.0 0.0 0.00 0.00 0.00 99 1049.1
20260510062112 15 165 0.0 0.0 0.00 0.00 0.00 99 1049.1
20260510061608 14 173 0.0 0.0 0.00 0.00 0.00 99 1049.0
20260510061106 13 179 0.0 0.0 0.00 0.00 0.00 99 1049.1
20260510060601 13 167 0.0 0.0 0.00 0.00 0.00 99 1048.8
20260510060058 13 158 0.0 0.0 0.00 0.00 0.00 99 1049.0
20260510055554 13 158 0.0 0.0 0.00 0.00 0.00 99 1049.1
20260510055053 13 160 0.0 0.0 0.00 0.00 0.00 99 1049.2
20260510054549 13 169 0.0 0.0 0.00 0.00 0.00 99 1049.1
20260510054044 13 172 0.0 0.0 0.00 0.00 0.00 99 1049.1
20260510053543 13 164 0.0 0.0 0.00 0.00 0.00 99 1049.1
20260510053041 13 149 0.0 0.0 0.00 0.00 0.00 99 1049.1
20260510052537 13 169 0.0 0.0 0.00 0.00 0.00 99 1049.1
20260510052033 13 167 0.0 0.0 0.00 0.00 0.00 99 1049.0
20260510051528 13 169 0.0 0.0 0.00 0.00 0.00 99 1049.2
20260510051025 13 163 0.0 0.0 0.00 0.00 0.00 99 1048.9
20260510050523 13 158 0.0 0.0 0.00 0.00 0.00 99 1049.1
20260510050020 14 169 0.0 0.0 0.00 0.00 0.00 99 1049.3
20260510045517 14 163 0.0 0.0 0.00 0.00 0.00 99 1049.1
20260510045012 14 160 0.0 0.0 0.00 0.00 0.00 99 1049.2
20260510044510 14 171 0.0 0.0 0.00 0.00 0.00 99 1049.1
20260510044008 14 165 0.0 0.0 0.00 0.00 0.00 99 1049.1
20260510043502 14 165 0.0 0.0 0.00 0.00 0.00 99 1049.3
20260510043002 14 164 0.0 0.0 0.00 0.00 0.00 99 1049.3
20260510042457 15 167 0.0 0.0 0.00 0.00 0.00 99 1049.2
20260510041953 15 164 0.0 0.0 0.00 0.00 0.00 99 1049.1
20260510041450 15 167 0.0 0.0 0.00 0.00 0.00 98 1049.4
20260510040948 15 165 0.0 0.0 0.00 0.00 0.00 98 1049.3
20260510040444 15 161 0.0 0.0 0.00 0.00 0.00 98 1049.0
20260510035940 15 165 0.0 0.0 0.00 0.00 0.00 98 1049.1
20260510035431 15 154 0.0 0.0 0.00 0.00 0.00 98 1049.2
20260510034931 15 153 0.0 0.0 0.00 0.00 0.00 98 1049.4
20260510034430 16 152 0.0 0.0 0.00 0.00 0.00 98 1049.2
20260510033926 16 175 0.0 0.0 0.00 0.00 0.00 98 1049.5
20260510033422 16 171 0.0 0.0 0.00 0.00 0.00 98 1049.6
20260510032919 16 154 0.0 0.0 0.00 0.00 0.00 98 1049.5
20260510032416 16 154 0.0 0.0 0.00 0.00 0.00 98 1049.5
20260510031911 16 175 0.0 0.0 0.00 0.00 0.00 97 1049.3
20260510031407 16 169 0.0 0.0 0.00 0.00 0.00 97 1049.5
20260510030906 16 169 0.0 0.0 0.00 0.00 0.00 97 1049.5
20260510030403 16 169 0.0 0.0 0.00 0.00 0.00 97 1049.0
20260510025901 16 158 0.0 0.0 0.00 0.00 0.00 97 1049.3
20260510025358 16 171 0.0 0.0 0.00 0.00 0.00 97 1049.5
20260510024855 16 169 0.0 0.0 0.00 0.00 0.00 97 1049.2
20260510024352 16 169 0.0 0.0 0.00 0.00 0.00 97 1049.2
20260510023848 17 166 0.0 0.0 0.00 0.00 0.00 96 1049.1
20260510023344 17 158 0.0 0.0 0.00 0.00 0.00 96 1049.1
20260510022842 17 167 0.0 0.0 0.00 0.00 0.00 96 1048.9
20260510022341 17 159 0.0 0.0 0.00 0.00 0.00 96 1048.8
20260510021840 17 161 0.0 0.0 0.00 0.00 0.00 96 1048.8
20260510021338 17 174 0.0 0.0 0.00 0.00 0.00 96 1048.8
20260510020835 17 169 0.0 0.0 0.00 0.00 0.00 95 1048.6
20260510020334 17 167 0.0 0.0 0.00 0.00 0.00 95 1048.6
20260510015830 17 172 0.0 0.0 0.00 0.00 0.00 95 1048.6
20260510015326 17 174 0.0 0.0 0.00 0.00 0.00 95 1048.3
20260510014822 17 175 0.0 0.0 0.00 0.00 0.00 94 1047.9
20260510014319 17 170 0.0 0.0 0.00 0.00 0.00 94 1047.9
20260510013815 18 176 0.0 1.6 0.00 0.00 0.00 94 1048.1
20260510013311 18 178 0.0 1.6 0.00 0.00 0.00 93 1047.8
20260510012807 18 178 1.6 1.6 0.00 0.00 0.00 93 1047.8
20260510012307 18 176 0.0 1.6 0.00 0.00 0.00 92 1047.7
20260510011806 18 174 0.0 0.0 0.00 0.00 0.00 92 1047.5
20260510011302 18 178 1.6 1.6 0.00 0.00 0.00 91 1047.3
20260510010759 19 173 0.0 1.6 0.00 0.00 0.00 90 1047.2
20260510010256 19 172 0.0 1.6 0.00 0.00 0.00 89 1047.3
20260510005753 20 180 3.2 3.2 0.00 0.00 0.00 87 1046.9
20260510005249 20 175 1.6 1.6 0.00 0.00 0.00 85 1047.1
20260510004747 20 170 0.0 0.0 0.00 0.00 0.00 83 1046.8
20260510004244 21 170 0.0 0.0 0.00 0.00 0.00 82 1047.0
20260510003742 21 171 0.0 0.0 0.00 0.00 0.00 81 1046.7
20260510003238 22 172 0.0 0.0 0.00 0.00 0.00 79 1046.7
20260510002736 22 171 0.0 0.0 0.00 0.00 0.00 77 1046.6
20260510002234 23 174 0.0 0.0 0.00 0.00 0.00 76 1046.7
20260510001731 24 175 0.0 0.0 0.00 0.00 0.00 75 1046.8
20260510001230 23 173 0.0 0.0 0.00 0.00 0.00 76 1046.7
20260510000725 23 173 0.0 0.0 0.00 0.00 0.00 76 1046.7
20260510000222 23 174 0.0 0.0 0.00 0.00 0.00 78 1046.5
20260509235719 23 173 0.0 0.0 0.00 0.00 0.00 78 1046.5
20260509235216 22 172 0.0 0.0 0.00 0.00 0.00 78 1046.7
20260509234712 23 174 0.0 1.6 0.00 0.00 0.00 78 1046.3
20260509234209 23 176 0.0 0.0 0.00 0.00 0.00 79 1046.6
20260509233708 23 172 0.0 0.0 0.00 0.00 0.00 81 1046.4
20260509233204 23 174 0.0 0.0 0.00 0.00 0.00 82 1046.6
20260509232701 23 174 0.0 0.0 0.00 0.00 0.00 83 1046.5
20260509232157 22 174 0.0 0.0 0.00 0.00 0.00 82 1046.4
20260509231654 22 171 0.0 0.0 0.00 0.00 0.00 81 1046.2
20260509231152 22 171 0.0 0.0 0.00 0.00 0.00 80 1046.4
20260509230648 22 170 0.0 0.0 0.00 0.00 0.00 78 1046.4
20260509230145 23 171 0.0 0.0 0.00 0.00 0.00 77 1046.1
20260509225641 23 175 0.0 0.0 0.00 0.00 0.00 75 1046.2
20260509225137 23 180 0.0 1.6 0.00 0.00 0.00 74 1046.4
20260509224632 23 174 0.0 0.0 0.00 0.00 0.00 74 1046.5
20260509224129 23 172 0.0 0.0 0.00 0.00 0.00 76 1046.3
20260509223626 23 170 0.0 0.0 0.00 0.00 0.00 76 1046.3
20260509223124 23 170 0.0 0.0 0.00 0.00 0.00 75 1046.4
20260509222620 23 172 0.0 0.0 0.00 0.00 0.00 75 1046.2
20260509222116 23 168 0.0 0.0 0.00 0.00 0.00 76 1046.1
20260509221612 22 188 1.6 3.2 0.00 0.00 0.00 72 1045.8
20260509221108 22 188 1.6 4.8 0.00 0.00 0.00 73 1045.8
20260509220604 22 247 6.4 9.7 0.00 0.00 0.00 71 1046.0
20260509220100 23 331 3.2 3.2 0.00 0.00 0.00 72 1045.9
20260509215555 23 274 6.4 8.0 0.00 0.00 0.00 71 1045.9
20260509215053 22 184 1.6 4.8 0.00 0.00 0.00 70 1045.8
20260509214550 22 263 3.2 9.7 0.00 0.00 0.00 70 1045.9
20260509214047 22 156 3.2 8.0 0.00 0.00 0.00 71 1045.9
20260509213543 23 277 3.2 8.0 0.00 0.00 0.00 71 1046.0
20260509213040 23 152 4.8 9.7 0.00 0.00 0.00 71 1045.7
20260509212537 23 314 4.8 8.0 0.00 0.00 0.00 71 1045.8
20260509212034 23 245 6.4 9.7 0.00 0.00 0.00 72 1046.3
20260509211530 23 251 4.8 8.0 0.00 0.00 0.00 72 1046.1
20260509211027 23 178 4.8 8.0 0.00 0.00 0.00 69 1046.1
20260509210524 23 56 1.6 4.8 0.00 0.00 0.00 71 1045.9
20260509210020 23 174 0.0 4.8 0.00 0.00 0.00 70 1046.2
20260509205514 23 250 8.0 11.3 0.00 0.00 0.00 71 1046.0
20260509205010 23 243 3.2 3.2 0.00 0.00 0.00 68 1046.0
20260509204506 24 178 0.0 1.6 0.00 0.00 0.00 70 1046.2
20260509204003 23 203 3.2 4.8 0.00 0.00 0.00 70 1046.2
20260509203459 23 179 0.0 1.6 0.00 0.00 0.00 71 1046.0
20260509202956 23 250 3.2 8.0 0.00 0.00 0.00 68 1046.3
20260509202452 23 168 0.0 3.2 0.00 0.00 0.00 68 1046.3
20260509201947 23 260 3.2 11.3 0.00 0.00 0.00 67 1046.3
20260509201443 23 356 4.8 9.7 0.00 0.00 0.00 68 1046.4
20260509200940 23 283 4.8 8.0 0.00 0.00 0.00 70 1046.4
20260509200440 23 303 3.2 3.2 0.00 0.00 0.00 69 1046.7
20260509195937 23 199 1.6 4.8 0.00 0.00 0.00 69 1046.7
20260509195433 23 171 0.0 1.6 0.00 0.00 0.00 69 1046.7
20260509194932 23 265 6.4 11.3 0.00 0.00 0.00 70 1046.9
20260509194428 24 175 1.6 4.8 0.00 0.00 0.00 70 1046.7
20260509193925 24 189 1.6 4.8 0.00 0.00 0.00 68 1047.1
20260509193425 24 184 0.0 8.0 0.00 0.00 0.00 69 1046.7